sat.trackr.live / text

‹ back to catalog

STARLINK-6320

NORAD 57336 · 2023-099J

PAYLOAD ACTIVE UNKNOWN

§ Identity

Operator
Country
US
Launch date
2023-07-16
Launch site
AFETR
Launch vehicle
Mass (kg)
RCS (m²)

Purposes: comms

External: N2YO · Heavens-Above · Gunter

§ Orbital elements

Epoch: 2026-09-20T14:32:26.592576Z

Period
94.27 min
Inclination
43.0012°
Eccentricity
0.0000575
Mean motion
15.27577856 rev/d
Perigee alt
482.7 km
Apogee alt
483.5 km
Semi-major
6,861.2 km
B*
-1.1447e-5
RAAN
228.4215°
Arg perigee
324.4806°
Mean anomaly
35.6007°
Rev number
17,592

§ Raw data

STARLINK-63201 57336U 23099J   26263.60586334 -.00000577  00000+0 -11447-4 0  99922 57336  43.0012 228.4215 0000575 324.4806  35.6007 15.27577856175922

JSON: /api/v1/satellites/57336 · /tle

For live sub-satellite position, see the globe view (requires WebGL).

§ Visibility from observer

Set your observer location to see the next 7 days of passes ≥ 10°. The values pass through the URL so the page stays shareable.

No JS? Fill the form by hand. The geolocation button needs JavaScript.